sat.trackr.live / text

‹ back to catalog

STARLINK-2738

NORAD 48668 · 2021-044AG

PAYLOAD ACTIVE UNKNOWN

§ Identity

Operator
Country
US
Launch date
2021-05-26
Launch site
AFETR
Launch vehicle
Mass (kg)
RCS (m²)

Purposes: comms

External: N2YO · Heavens-Above · Gunter

§ Orbital elements

Epoch: 2026-05-25T03:50:41.882208Z

Period
94.01 min
Inclination
53.1599°
Eccentricity
0.0001099
Mean motion
15.31703744 rev/d
Perigee alt
470.0 km
Apogee alt
471.5 km
Semi-major
6,848.9 km
B*
2.4310e-5
RAAN
108.2801°
Arg perigee
80.8796°
Mean anomaly
279.2329°
Rev number
27,568

§ Raw data

STARLINK-27381 48668U 21044AG  26145.16020697  .00000389  00000+0  24310-4 0  99952 48668  53.1599 108.2801 0001099  80.8796 279.2329 15.31703744275680

JSON: /api/v1/satellites/48668 · /tle

For live sub-satellite position, see the globe view (requires WebGL).

§ Visibility from observer

Set your observer location to see the next 7 days of passes ≥ 10°. The values pass through the URL so the page stays shareable.

No JS? Fill the form by hand. The geolocation button needs JavaScript.